Year,Month,Day,Hour,Minute,Value (Times are PST for windgust in km/hr)
2015,08,30,00,23,3.20
2015,08,30,00,24,3.20
2015,08,30,00,25,1.60
2015,08,30,00,26,3.20
2015,08,30,00,27,4.80
2015,08,30,00,28,3.20
2015,08,30,00,29,3.20
2015,08,30,00,32,1.60
2015,08,30,00,33,1.60
2015,08,30,00,36,1.60
2015,08,30,00,37,3.20
2015,08,30,00,38,1.60
2015,08,30,00,39,1.60
2015,08,30,00,40,1.60
2015,08,30,00,41,4.80
2015,08,30,00,42,3.20
2015,08,30,00,43,4.80
2015,08,30,00,44,1.60
2015,08,30,00,45,3.20
2015,08,30,00,46,3.20
2015,08,30,00,47,3.20
2015,08,30,00,51,1.60
2015,08,30,00,54,1.60
2015,08,30,00,57,3.20
2015,08,30,00,58,1.60
2015,08,30,01,00,1.60
2015,08,30,01,01,1.60
2015,08,30,01,03,1.60
2015,08,30,01,04,1.60
2015,08,30,01,05,1.60
2015,08,30,01,07,3.20
2015,08,30,01,11,1.60
2015,08,30,01,24,1.60
2015,08,30,01,31,1.60
2015,08,30,01,33,1.60
2015,08,30,01,36,1.60
2015,08,30,01,44,1.60
2015,08,30,01,50,1.60
2015,08,30,02,00,1.60
2015,08,30,02,02,3.20
2015,08,30,02,06,1.60
2015,08,30,02,07,1.60
2015,08,30,02,09,3.20
2015,08,30,02,10,1.60
2015,08,30,02,11,3.20
2015,08,30,02,12,1.60
2015,08,30,02,17,1.60
2015,08,30,02,20,1.60
2015,08,30,02,21,1.60
2015,08,30,02,29,1.60
2015,08,30,02,30,1.60
2015,08,30,02,31,1.60
2015,08,30,02,41,3.20
2015,08,30,02,42,1.60
2015,08,30,02,44,4.80
2015,08,30,02,46,1.60
2015,08,30,02,48,4.80
2015,08,30,02,49,3.20
2015,08,30,02,52,1.60
2015,08,30,02,53,1.60
2015,08,30,02,54,1.60
2015,08,30,03,00,1.60
2015,08,30,03,01,3.20
2015,08,30,03,02,1.60
2015,08,30,03,04,3.20
2015,08,30,03,05,1.60
2015,08,30,03,08,1.60
2015,08,30,03,09,3.20
2015,08,30,03,10,1.60
2015,08,30,03,11,1.60
2015,08,30,03,13,1.60
2015,08,30,03,14,4.80
2015,08,30,03,17,1.60
2015,08,30,03,18,1.60
2015,08,30,03,19,3.20
2015,08,30,03,21,1.60
2015,08,30,03,22,1.60
2015,08,30,03,23,4.80
2015,08,30,03,24,4.80
2015,08,30,03,25,4.80
2015,08,30,03,26,3.20
2015,08,30,03,27,4.80
2015,08,30,03,28,1.60
2015,08,30,03,31,3.20
2015,08,30,03,32,4.80
2015,08,30,03,34,4.80
2015,08,30,03,35,3.20
2015,08,30,03,36,1.60
2015,08,30,03,37,1.60
2015,08,30,03,38,1.60
2015,08,30,03,39,3.20
2015,08,30,03,40,4.80
2015,08,30,03,41,1.60
2015,08,30,03,42,3.20
2015,08,30,03,43,3.20
2015,08,30,03,44,3.20
2015,08,30,03,45,3.20
2015,08,30,03,47,3.20
2015,08,30,03,49,1.60
2015,08,30,03,50,4.80
2015,08,30,03,51,3.20
2015,08,30,03,55,1.60
2015,08,30,03,57,3.20
2015,08,30,03,58,1.60
2015,08,30,04,05,1.60
2015,08,30,04,06,1.60
2015,08,30,04,09,4.80
2015,08,30,04,10,3.20
2015,08,30,04,11,3.20
2015,08,30,04,17,1.60
2015,08,30,04,18,3.20
2015,08,30,04,20,1.60
2015,08,30,04,25,1.60
2015,08,30,04,27,1.60
2015,08,30,04,31,1.60
2015,08,30,04,32,3.20
2015,08,30,04,37,1.60
2015,08,30,04,41,3.20
2015,08,30,04,42,1.60
2015,08,30,04,43,4.80
2015,08,30,04,44,4.80
2015,08,30,04,45,1.60
2015,08,30,04,46,3.20
2015,08,30,04,47,4.80
2015,08,30,04,48,1.60
2015,08,30,04,49,6.40
2015,08,30,04,50,6.40
2015,08,30,04,52,1.60
2015,08,30,04,53,1.60
2015,08,30,05,02,1.60
2015,08,30,05,03,4.80
2015,08,30,05,04,4.80
2015,08,30,05,05,3.20
2015,08,30,05,06,3.20
2015,08,30,05,07,1.60
2015,08,30,05,09,3.20
2015,08,30,05,10,3.20
2015,08,30,05,13,1.60
2015,08,30,05,20,1.60
2015,08,30,05,21,1.60
2015,08,30,05,22,3.20
2015,08,30,05,23,1.60
2015,08,30,05,24,4.80
2015,08,30,05,25,3.20
2015,08,30,05,26,1.60
2015,08,30,05,27,1.60
2015,08,30,05,28,1.60
2015,08,30,05,33,1.60
2015,08,30,05,35,1.60
2015,08,30,05,36,1.60
2015,08,30,05,37,1.60
2015,08,30,05,41,1.60
2015,08,30,05,43,1.60
2015,08,30,05,47,1.60
2015,08,30,05,51,1.60
2015,08,30,05,54,1.60
2015,08,30,06,00,1.60
2015,08,30,06,04,1.60
2015,08,30,07,09,1.60
2015,08,30,07,16,1.60
2015,08,30,07,35,1.60
2015,08,30,07,36,1.60
2015,08,30,07,37,1.60
2015,08,30,07,38,1.60
2015,08,30,07,42,1.60
2015,08,30,08,03,1.60
2015,08,30,08,06,1.60
2015,08,30,08,13,1.60
2015,08,30,08,14,1.60
2015,08,30,08,15,3.20
2015,08,30,08,16,1.60
2015,08,30,08,17,3.20
2015,08,30,08,18,1.60
2015,08,30,08,20,1.60
2015,08,30,08,21,3.20
2015,08,30,08,23,1.60
2015,08,30,08,24,1.60
2015,08,30,08,25,4.80
2015,08,30,08,26,8.10
2015,08,30,08,27,9.60
2015,08,30,08,28,6.40
2015,08,30,08,29,8.10
2015,08,30,08,30,8.10
2015,08,30,08,31,4.80
2015,08,30,08,32,1.60
2015,08,30,08,33,4.80
2015,08,30,08,34,6.40
2015,08,30,08,35,4.80
2015,08,30,08,36,3.20
2015,08,30,08,38,1.60
2015,08,30,08,39,3.20
2015,08,30,08,41,1.60
2015,08,30,08,42,4.80
2015,08,30,08,43,3.20
2015,08,30,08,44,4.80
2015,08,30,08,45,4.80
2015,08,30,08,46,4.80
2015,08,30,08,47,4.80
2015,08,30,08,48,1.60
2015,08,30,08,49,1.60
2015,08,30,08,50,1.60
2015,08,30,08,51,3.20
2015,08,30,08,52,6.40
2015,08,30,08,54,3.20
2015,08,30,08,55,1.60
2015,08,30,08,56,8.10
2015,08,30,08,57,6.40
2015,08,30,08,58,4.80
2015,08,30,08,59,3.20
2015,08,30,09,00,6.40
2015,08,30,09,01,1.60
2015,08,30,09,02,3.20
2015,08,30,09,03,4.80
2015,08,30,09,04,4.80
2015,08,30,09,05,3.20
2015,08,30,09,06,3.20
2015,08,30,09,07,3.20
2015,08,30,09,09,3.20
2015,08,30,09,10,4.80
2015,08,30,09,11,4.80
2015,08,30,09,13,1.60
2015,08,30,09,14,4.80
2015,08,30,09,15,1.60
2015,08,30,09,16,4.80
2015,08,30,09,17,6.40
2015,08,30,09,18,4.80
2015,08,30,09,19,6.40
2015,08,30,09,20,8.10
2015,08,30,09,21,8.10
2015,08,30,09,22,1.60
2015,08,30,09,24,4.80
2015,08,30,09,25,6.40
2015,08,30,09,26,1.60
2015,08,30,09,27,3.20
2015,08,30,09,34,1.60
2015,08,30,09,38,1.60
2015,08,30,09,40,4.80
2015,08,30,09,41,4.80
2015,08,30,09,42,6.40
2015,08,30,09,43,8.10
2015,08,30,09,44,8.10
2015,08,30,09,45,4.80
2015,08,30,09,46,6.40
2015,08,30,09,47,6.40
2015,08,30,09,48,6.40
2015,08,30,09,49,4.80
2015,08,30,09,50,4.80
2015,08,30,09,51,1.60
2015,08,30,09,52,4.80
2015,08,30,09,53,1.60
2015,08,30,09,54,6.40
2015,08,30,09,55,4.80
2015,08,30,09,56,4.80
2015,08,30,09,57,8.10
2015,08,30,09,58,6.40
2015,08,30,09,59,6.40
2015,08,30,10,00,6.40
2015,08,30,10,01,6.40
2015,08,30,10,02,4.80
2015,08,30,10,03,1.60
2015,08,30,10,04,1.60
2015,08,30,10,05,1.60
2015,08,30,10,06,3.20
2015,08,30,10,07,4.80
2015,08,30,10,09,1.60
2015,08,30,10,10,4.80
2015,08,30,10,11,1.60
2015,08,30,10,13,1.60
2015,08,30,10,14,1.60
2015,08,30,10,16,1.60
2015,08,30,10,17,3.20
2015,08,30,10,18,1.60
2015,08,30,10,19,1.60
2015,08,30,10,22,3.20
2015,08,30,10,24,1.60
2015,08,30,10,25,3.20
2015,08,30,10,26,1.60
2015,08,30,10,27,8.10
2015,08,30,10,28,6.40
2015,08,30,10,30,1.60
2015,08,30,10,31,9.60
2015,08,30,10,32,6.40
2015,08,30,10,33,6.40
2015,08,30,10,34,6.40
2015,08,30,10,35,4.80
2015,08,30,10,36,4.80
2015,08,30,10,37,8.10
2015,08,30,10,38,4.80
2015,08,30,10,39,4.80
2015,08,30,10,41,1.60
2015,08,30,10,42,3.20
2015,08,30,10,43,6.40
2015,08,30,10,44,9.60
2015,08,30,10,45,8.10
2015,08,30,10,46,6.40
2015,08,30,10,47,3.20
2015,08,30,10,48,1.60
2015,08,30,10,50,1.60
2015,08,30,10,51,4.80
2015,08,30,10,52,8.10
2015,08,30,10,53,8.10
2015,08,30,10,54,1.60
2015,08,30,10,55,3.20
2015,08,30,10,56,4.80
2015,08,30,10,57,3.20
2015,08,30,10,58,1.60
2015,08,30,10,59,3.20
2015,08,30,11,00,3.20
2015,08,30,11,01,1.60
2015,08,30,11,02,1.60
2015,08,30,11,03,8.10
2015,08,30,11,04,9.60
2015,08,30,11,05,8.10
2015,08,30,11,06,8.10
2015,08,30,11,07,9.60
2015,08,30,11,08,4.80
2015,08,30,11,09,3.20
2015,08,30,11,10,8.10
2015,08,30,11,11,9.60
2015,08,30,11,12,12.90
2015,08,30,11,13,16.10
2015,08,30,11,14,16.10
2015,08,30,11,15,9.60
2015,08,30,11,16,16.10
2015,08,30,11,17,14.50
2015,08,30,11,18,11.30
2015,08,30,11,19,9.60
2015,08,30,11,20,11.30
2015,08,30,11,21,14.50
2015,08,30,11,22,12.90
2015,08,30,11,23,9.60
2015,08,30,11,24,9.60
2015,08,30,11,25,11.30
2015,08,30,11,26,6.40
2015,08,30,11,27,12.90
2015,08,30,11,28,11.30
2015,08,30,11,29,11.30
2015,08,30,11,30,14.50
2015,08,30,11,31,8.10
2015,08,30,11,32,9.60
2015,08,30,11,33,12.90
2015,08,30,11,34,11.30
2015,08,30,11,35,9.60
2015,08,30,11,36,9.60
2015,08,30,11,37,11.30
2015,08,30,11,38,11.30
2015,08,30,11,39,6.40
2015,08,30,11,40,8.10
2015,08,30,11,41,9.60
2015,08,30,11,42,8.10
2015,08,30,11,43,9.60
2015,08,30,11,44,12.90
2015,08,30,11,45,14.50
2015,08,30,11,46,9.60
2015,08,30,11,47,11.30
2015,08,30,11,48,8.10
2015,08,30,11,49,9.60
2015,08,30,11,50,11.30
2015,08,30,11,51,12.90
2015,08,30,11,52,9.60
2015,08,30,11,53,16.10
2015,08,30,11,54,14.50
2015,08,30,11,55,12.90
2015,08,30,11,56,14.50
2015,08,30,11,57,9.60
2015,08,30,11,58,6.40
2015,08,30,11,59,9.60
2015,08,30,12,00,8.10
2015,08,30,12,01,8.10
2015,08,30,12,02,11.30
2015,08,30,12,03,12.90
2015,08,30,12,04,11.30
2015,08,30,12,05,16.10
2015,08,30,12,06,16.10
2015,08,30,12,07,16.10
2015,08,30,12,08,16.10
2015,08,30,12,09,19.30
2015,08,30,12,10,17.70
2015,08,30,12,11,11.30
2015,08,30,12,12,11.30
2015,08,30,12,13,16.10
2015,08,30,12,14,17.70
2015,08,30,12,15,8.10
2015,08,30,12,16,9.60
2015,08,30,12,17,14.50
2015,08,30,12,18,11.30
2015,08,30,12,19,11.30
2015,08,30,12,20,8.10
2015,08,30,12,21,16.10
2015,08,30,12,22,9.60
2015,08,30,12,23,11.30
2015,08,30,12,24,14.50
2015,08,30,12,25,11.30
2015,08,30,12,26,4.80
2015,08,30,12,27,9.60
2015,08,30,12,28,11.30
2015,08,30,12,29,3.20
2015,08,30,12,30,9.60
2015,08,30,12,31,17.70
2015,08,30,12,32,14.50
2015,08,30,12,33,20.90
2015,08,30,12,34,14.50
2015,08,30,12,35,14.50
2015,08,30,12,36,11.30
2015,08,30,12,37,11.30
2015,08,30,12,38,11.30
2015,08,30,12,39,11.30
2015,08,30,12,40,8.10
2015,08,30,12,41,8.10
2015,08,30,12,42,8.10
2015,08,30,12,43,12.90
2015,08,30,12,44,9.60
2015,08,30,12,45,6.40
2015,08,30,12,46,11.30
2015,08,30,12,47,6.40
2015,08,30,12,48,8.10
2015,08,30,12,49,1.60
2015,08,30,12,50,11.30
2015,08,30,12,51,17.70
2015,08,30,12,52,14.50
2015,08,30,12,53,8.10
2015,08,30,12,54,3.20
2015,08,30,12,55,8.10
2015,08,30,12,56,1.60
2015,08,30,12,57,9.60
2015,08,30,12,58,8.10
2015,08,30,12,59,8.10
2015,08,30,13,00,9.60
2015,08,30,13,01,16.10
2015,08,30,13,02,17.70
2015,08,30,13,03,20.90
2015,08,30,13,04,14.50
2015,08,30,13,05,8.10
2015,08,30,13,06,11.30
2015,08,30,13,07,9.60
2015,08,30,13,08,8.10
2015,08,30,13,09,8.10
2015,08,30,13,10,9.60
2015,08,30,13,11,16.10
2015,08,30,13,12,12.90
2015,08,30,13,13,14.50
2015,08,30,13,14,8.10
2015,08,30,13,15,6.40
2015,08,30,13,16,11.30
2015,08,30,13,17,11.30
2015,08,30,13,18,9.60
2015,08,30,13,19,6.40
2015,08,30,13,20,8.10
2015,08,30,13,21,19.30
2015,08,30,13,22,9.60
2015,08,30,13,23,8.10
2015,08,30,13,24,9.60
2015,08,30,13,25,9.60
2015,08,30,13,26,9.60
2015,08,30,13,27,6.40
2015,08,30,13,28,9.60
2015,08,30,13,29,14.50
2015,08,30,13,30,8.10
2015,08,30,13,31,16.10
2015,08,30,13,32,11.30
2015,08,30,13,33,9.60
2015,08,30,13,34,9.60
2015,08,30,13,35,8.10
2015,08,30,13,36,9.60
2015,08,30,13,37,8.10
2015,08,30,13,38,14.50
2015,08,30,13,39,14.50
2015,08,30,13,40,14.50
2015,08,30,13,41,12.90
2015,08,30,13,42,12.90
2015,08,30,13,43,11.30
2015,08,30,13,44,8.10
2015,08,30,13,45,4.80
2015,08,30,13,46,14.50
2015,08,30,13,47,9.60
2015,08,30,13,48,8.10
2015,08,30,13,49,9.60
2015,08,30,13,50,6.40
2015,08,30,13,51,11.30
2015,08,30,13,52,16.10
2015,08,30,13,53,11.30
2015,08,30,13,54,12.90
2015,08,30,13,55,14.50
2015,08,30,13,56,16.10
2015,08,30,13,57,14.50
2015,08,30,13,58,12.90
2015,08,30,13,59,11.30
2015,08,30,14,00,16.10
2015,08,30,14,01,16.10
2015,08,30,14,02,16.10
2015,08,30,14,03,8.10
2015,08,30,14,04,14.50
2015,08,30,14,05,8.10
2015,08,30,14,06,8.10
2015,08,30,14,07,9.60
2015,08,30,14,08,14.50
2015,08,30,14,09,8.10
2015,08,30,14,10,8.10
2015,08,30,14,11,12.90
2015,08,30,14,12,9.60
2015,08,30,14,13,9.60
2015,08,30,14,14,6.40
2015,08,30,14,15,11.30
2015,08,30,14,16,11.30
2015,08,30,14,17,12.90
2015,08,30,14,18,16.10
2015,08,30,14,19,11.30
2015,08,30,14,20,8.10
2015,08,30,14,21,14.50
2015,08,30,14,22,9.60
2015,08,30,14,23,14.50
2015,08,30,14,24,9.60
2015,08,30,14,25,9.60
2015,08,30,14,26,14.50
2015,08,30,14,27,12.90
2015,08,30,14,28,16.10
2015,08,30,14,29,12.90
2015,08,30,14,30,14.50
2015,08,30,14,31,16.10
2015,08,30,14,32,16.10
2015,08,30,14,33,9.60
2015,08,30,14,34,14.50
2015,08,30,14,35,8.10
2015,08,30,14,36,16.10
2015,08,30,14,37,14.50
2015,08,30,14,38,14.50
2015,08,30,14,39,16.10
2015,08,30,14,40,14.50
2015,08,30,14,41,14.50
2015,08,30,14,42,9.60
2015,08,30,14,43,16.10
2015,08,30,14,44,17.70
2015,08,30,14,45,16.10
2015,08,30,14,46,9.60
2015,08,30,14,47,16.10
2015,08,30,14,48,12.90
2015,08,30,14,49,8.10
2015,08,30,14,50,11.30
2015,08,30,14,51,14.50
2015,08,30,14,52,12.90
2015,08,30,14,53,14.50
2015,08,30,14,54,8.10
2015,08,30,14,55,11.30
2015,08,30,14,56,6.40
2015,08,30,14,57,3.20
2015,08,30,14,58,8.10
2015,08,30,14,59,8.10
2015,08,30,15,00,6.40
2015,08,30,15,01,6.40
2015,08,30,15,02,6.40
2015,08,30,15,03,8.10
2015,08,30,15,04,3.20
2015,08,30,15,05,6.40
2015,08,30,15,06,8.10
2015,08,30,15,07,14.50
2015,08,30,15,08,6.40
2015,08,30,15,09,9.60
2015,08,30,15,10,9.60
2015,08,30,15,11,9.60
2015,08,30,15,12,11.30
2015,08,30,15,13,16.10
2015,08,30,15,14,11.30
2015,08,30,15,15,11.30
2015,08,30,15,16,11.30
2015,08,30,15,17,8.10
2015,08,30,15,18,9.60
2015,08,30,15,19,11.30
2015,08,30,15,20,9.60
2015,08,30,15,21,8.10
2015,08,30,15,22,11.30
2015,08,30,15,23,8.10
2015,08,30,15,24,8.10
2015,08,30,15,25,9.60
2015,08,30,15,26,6.40
2015,08,30,15,27,6.40
2015,08,30,15,28,11.30
2015,08,30,15,29,8.10
2015,08,30,15,30,3.20
2015,08,30,15,31,6.40
2015,08,30,15,32,8.10
2015,08,30,15,33,8.10
2015,08,30,15,34,11.30
2015,08,30,15,35,8.10
2015,08,30,15,36,4.80
2015,08,30,15,37,16.10
2015,08,30,15,38,9.60
2015,08,30,15,39,11.30
2015,08,30,15,40,14.50
2015,08,30,15,41,4.80
2015,08,30,15,42,11.30
2015,08,30,15,43,9.60
2015,08,30,15,44,8.10
2015,08,30,15,45,8.10
2015,08,30,15,46,4.80
2015,08,30,15,47,8.10
2015,08,30,15,48,9.60
2015,08,30,15,49,16.10
2015,08,30,15,50,16.10
2015,08,30,15,51,6.40
2015,08,30,15,52,11.30
2015,08,30,15,53,11.30
2015,08,30,15,54,8.10
2015,08,30,15,55,4.80
2015,08,30,15,56,6.40
2015,08,30,15,57,4.80
2015,08,30,15,58,4.80
2015,08,30,15,59,3.20
2015,08,30,16,00,9.60
2015,08,30,16,01,6.40
2015,08,30,16,02,8.10
2015,08,30,16,03,6.40
2015,08,30,16,04,4.80
2015,08,30,16,05,6.40
2015,08,30,16,06,8.10
2015,08,30,16,07,9.60
2015,08,30,16,08,9.60
2015,08,30,16,09,4.80
2015,08,30,16,10,8.10
2015,08,30,16,11,8.10
2015,08,30,16,12,8.10
2015,08,30,16,13,1.60
2015,08,30,16,14,6.40
2015,08,30,16,15,6.40
2015,08,30,16,16,11.30
2015,08,30,16,17,8.10
2015,08,30,16,18,6.40
2015,08,30,16,19,9.60
2015,08,30,16,20,6.40
2015,08,30,16,21,4.80
2015,08,30,16,22,9.60
2015,08,30,16,23,6.40
2015,08,30,16,24,4.80
2015,08,30,16,25,8.10
2015,08,30,16,26,6.40
2015,08,30,16,27,9.60
2015,08,30,16,28,11.30
2015,08,30,16,29,17.70
2015,08,30,16,30,20.90
2015,08,30,16,31,17.70
2015,08,30,16,32,16.10
2015,08,30,16,33,11.30
2015,08,30,16,34,22.50
2015,08,30,16,35,19.30
2015,08,30,16,36,20.90
2015,08,30,16,37,17.70
2015,08,30,16,38,19.30
2015,08,30,16,39,14.50
2015,08,30,16,40,11.30
2015,08,30,16,41,11.30
2015,08,30,16,42,14.50
2015,08,30,16,43,14.50
2015,08,30,16,44,14.50
2015,08,30,16,45,12.90
2015,08,30,16,46,11.30
2015,08,30,16,47,9.60
2015,08,30,16,48,9.60
2015,08,30,16,49,9.60
2015,08,30,16,50,16.10
2015,08,30,16,51,16.10
2015,08,30,16,52,9.60
2015,08,30,16,53,8.10
2015,08,30,16,54,6.40
2015,08,30,16,55,9.60
2015,08,30,16,56,16.10
2015,08,30,16,57,9.60
2015,08,30,16,58,8.10
2015,08,30,16,59,6.40
2015,08,30,17,00,11.30
2015,08,30,17,01,6.40
2015,08,30,17,02,6.40
2015,08,30,17,03,11.30
2015,08,30,17,04,8.10
2015,08,30,17,05,9.60
2015,08,30,17,06,6.40
2015,08,30,17,07,11.30
2015,08,30,17,08,11.30
2015,08,30,17,09,8.10
2015,08,30,17,10,12.90
2015,08,30,17,11,12.90
2015,08,30,17,12,9.60
2015,08,30,17,13,11.30
2015,08,30,17,14,16.10
2015,08,30,17,15,17.70
2015,08,30,17,16,8.10
2015,08,30,17,17,9.60
2015,08,30,17,18,6.40
2015,08,30,17,19,4.80
2015,08,30,17,20,8.10
2015,08,30,17,21,8.10
2015,08,30,17,22,11.30
2015,08,30,17,23,9.60
2015,08,30,17,24,6.40
2015,08,30,17,25,4.80
2015,08,30,17,26,6.40
2015,08,30,17,27,11.30
2015,08,30,17,28,11.30
2015,08,30,17,29,12.90
2015,08,30,17,30,9.60
2015,08,30,17,31,11.30
2015,08,30,17,32,11.30
2015,08,30,17,33,14.50
2015,08,30,17,34,9.60
2015,08,30,17,35,8.10
2015,08,30,17,36,8.10
2015,08,30,17,37,17.70
2015,08,30,17,38,8.10
2015,08,30,17,39,19.30
2015,08,30,17,40,11.30
2015,08,30,17,41,9.60
2015,08,30,17,42,11.30
2015,08,30,17,43,12.90
2015,08,30,17,44,14.50
2015,08,30,17,45,8.10
2015,08,30,17,46,8.10
2015,08,30,17,47,8.10
2015,08,30,17,48,6.40
2015,08,30,17,49,6.40
2015,08,30,17,50,9.60
2015,08,30,17,51,8.10
2015,08,30,17,52,4.80
2015,08,30,17,53,6.40
2015,08,30,17,54,9.60
2015,08,30,17,55,3.20
2015,08,30,17,56,3.20
2015,08,30,17,57,4.80
2015,08,30,17,58,6.40
2015,08,30,17,59,6.40
2015,08,30,18,00,4.80
2015,08,30,18,01,8.10
2015,08,30,18,02,6.40
2015,08,30,18,03,6.40
2015,08,30,18,04,6.40
2015,08,30,18,05,4.80
2015,08,30,18,06,6.40
2015,08,30,18,07,6.40
2015,08,30,18,08,3.20
2015,08,30,18,09,8.10
2015,08,30,18,10,6.40
2015,08,30,18,11,11.30
2015,08,30,18,12,9.60
2015,08,30,18,13,6.40
2015,08,30,18,14,6.40
2015,08,30,18,15,4.80
2015,08,30,18,16,4.80
2015,08,30,18,17,3.20
2015,08,30,18,18,6.40
2015,08,30,18,19,6.40
2015,08,30,18,20,4.80
2015,08,30,18,21,6.40
2015,08,30,18,22,4.80
2015,08,30,18,23,4.80
2015,08,30,18,24,4.80
2015,08,30,18,25,3.20
2015,08,30,18,26,1.60
2015,08,30,18,27,3.20
2015,08,30,18,28,3.20
2015,08,30,18,29,6.40
2015,08,30,18,30,4.80
2015,08,30,18,31,3.20
2015,08,30,18,32,1.60
2015,08,30,18,33,1.60
2015,08,30,18,34,4.80
2015,08,30,18,35,3.20
2015,08,30,18,36,4.80
2015,08,30,18,37,3.20
2015,08,30,18,38,3.20
2015,08,30,18,39,1.60
2015,08,30,18,40,1.60
2015,08,30,18,41,4.80
2015,08,30,18,42,6.40
2015,08,30,18,43,4.80
2015,08,30,18,44,6.40
2015,08,30,18,45,1.60
2015,08,30,18,46,4.80
2015,08,30,18,47,3.20
2015,08,30,18,48,3.20
2015,08,30,18,49,1.60
2015,08,30,18,50,1.60
2015,08,30,18,51,1.60
2015,08,30,18,52,3.20
2015,08,30,18,53,1.60
2015,08,30,18,54,4.80
2015,08,30,18,55,3.20
2015,08,30,18,56,1.60
2015,08,30,18,57,3.20
2015,08,30,18,58,4.80
2015,08,30,18,59,8.10
2015,08,30,19,00,6.40
2015,08,30,19,01,3.20
2015,08,30,19,02,6.40
2015,08,30,19,03,6.40
2015,08,30,19,04,6.40
2015,08,30,19,05,4.80
2015,08,30,19,06,9.60
2015,08,30,19,07,9.60
2015,08,30,19,08,8.10
2015,08,30,19,09,3.20
2015,08,30,19,10,1.60
2015,08,30,19,11,11.30
2015,08,30,19,12,8.10
2015,08,30,19,13,8.10
2015,08,30,19,14,8.10
2015,08,30,19,15,6.40
2015,08,30,19,16,4.80
2015,08,30,19,17,14.50
2015,08,30,19,18,8.10
2015,08,30,19,19,1.60
2015,08,30,19,20,8.10
2015,08,30,19,21,4.80
2015,08,30,19,22,3.20
2015,08,30,19,23,4.80
2015,08,30,19,24,14.50
2015,08,30,19,25,6.40
2015,08,30,19,26,4.80
2015,08,30,19,27,6.40
2015,08,30,19,28,4.80
2015,08,30,19,29,11.30
2015,08,30,19,30,11.30
2015,08,30,19,31,12.90
2015,08,30,19,32,12.90
2015,08,30,19,33,8.10
2015,08,30,19,34,14.50
2015,08,30,19,35,6.40
2015,08,30,19,36,3.20
2015,08,30,19,37,9.60
2015,08,30,19,38,14.50
2015,08,30,19,39,8.10
2015,08,30,19,40,3.20
2015,08,30,19,41,9.60
2015,08,30,19,42,14.50
2015,08,30,19,43,9.60
2015,08,30,19,44,9.60
2015,08,30,19,45,11.30
2015,08,30,19,46,16.10
2015,08,30,19,47,8.10
2015,08,30,19,48,6.40
2015,08,30,19,49,9.60
2015,08,30,19,50,8.10
2015,08,30,19,51,8.10
2015,08,30,19,52,8.10
2015,08,30,19,53,11.30
2015,08,30,19,54,11.30
2015,08,30,19,55,6.40
2015,08,30,19,56,8.10
2015,08,30,19,57,9.60
2015,08,30,19,58,9.60
2015,08,30,19,59,9.60
2015,08,30,20,00,16.10
2015,08,30,20,01,11.30
2015,08,30,20,02,9.60
2015,08,30,20,03,6.40
2015,08,30,20,04,14.50
2015,08,30,20,05,12.90
2015,08,30,20,06,6.40
2015,08,30,20,07,8.10
2015,08,30,20,08,8.10
2015,08,30,20,09,6.40
2015,08,30,20,10,9.60
2015,08,30,20,11,8.10
2015,08,30,20,12,8.10
2015,08,30,20,13,11.30
2015,08,30,20,14,11.30
2015,08,30,20,15,11.30
2015,08,30,20,16,11.30
2015,08,30,20,17,14.50
2015,08,30,20,18,8.10
2015,08,30,20,19,4.80
2015,08,30,20,20,11.30
2015,08,30,20,21,6.40
2015,08,30,20,22,1.60
2015,08,30,20,23,4.80
2015,08,30,20,24,11.30
2015,08,30,20,25,17.70
2015,08,30,20,26,11.30
2015,08,30,20,27,6.40
2015,08,30,20,28,8.10
2015,08,30,20,29,9.60
2015,08,30,20,30,6.40
2015,08,30,20,31,6.40
2015,08,30,20,32,3.20
2015,08,30,20,33,4.80
2015,08,30,20,34,4.80
2015,08,30,20,35,3.20
2015,08,30,20,36,8.10
2015,08,30,20,37,1.60
2015,08,30,20,38,6.40
2015,08,30,20,39,8.10
2015,08,30,20,40,6.40
2015,08,30,20,41,8.10
2015,08,30,20,42,11.30
2015,08,30,20,43,11.30
2015,08,30,20,44,11.30
2015,08,30,20,45,8.10
2015,08,30,20,46,6.40
2015,08,30,20,47,6.40
2015,08,30,20,48,6.40
2015,08,30,20,50,1.60
2015,08,30,20,52,1.60
2015,08,30,20,53,1.60
2015,08,30,20,55,4.80
2015,08,30,20,57,1.60
2015,08,30,20,58,3.20
2015,08,30,20,59,1.60
2015,08,30,21,00,3.20
2015,08,30,21,01,4.80
2015,08,30,21,02,3.20
2015,08,30,21,03,4.80
2015,08,30,21,04,6.40
2015,08,30,21,05,3.20
2015,08,30,21,06,1.60
2015,08,30,21,07,4.80
2015,08,30,21,08,3.20
2015,08,30,21,09,3.20
2015,08,30,21,10,1.60
2015,08,30,21,11,6.40
2015,08,30,21,12,3.20
2015,08,30,21,13,3.20
2015,08,30,21,14,4.80
2015,08,30,21,15,3.20
2015,08,30,21,17,1.60
2015,08,30,21,18,4.80
2015,08,30,21,19,3.20
2015,08,30,21,20,3.20
2015,08,30,21,21,1.60
2015,08,30,21,22,1.60
2015,08,30,21,23,1.60
2015,08,30,21,24,4.80
2015,08,30,21,25,3.20
2015,08,30,21,26,8.10
2015,08,30,21,27,9.60
2015,08,30,21,28,3.20
2015,08,30,21,29,6.40
2015,08,30,21,30,6.40
2015,08,30,21,31,8.10
2015,08,30,21,32,1.60
2015,08,30,21,33,6.40
2015,08,30,21,34,9.60
2015,08,30,21,35,8.10
2015,08,30,21,36,6.40
2015,08,30,21,37,8.10
2015,08,30,21,38,8.10
2015,08,30,21,39,6.40
2015,08,30,21,40,3.20
2015,08,30,21,41,1.60
2015,08,30,21,42,4.80
2015,08,30,21,43,9.60
2015,08,30,21,44,8.10
2015,08,30,21,45,4.80
2015,08,30,21,46,6.40
2015,08,30,21,47,8.10
2015,08,30,21,48,6.40
2015,08,30,21,49,6.40
2015,08,30,21,50,9.60
2015,08,30,21,51,6.40
2015,08,30,21,52,4.80
2015,08,30,21,53,3.20
2015,08,30,21,54,4.80
2015,08,30,21,55,11.30
2015,08,30,21,56,11.30
2015,08,30,21,57,8.10
2015,08,30,21,58,11.30
2015,08,30,21,59,8.10
2015,08,30,22,00,6.40
2015,08,30,22,01,6.40
2015,08,30,22,02,6.40
2015,08,30,22,03,8.10
2015,08,30,22,04,6.40
2015,08,30,22,05,6.40
2015,08,30,22,06,11.30
2015,08,30,22,07,6.40
2015,08,30,22,08,6.40
2015,08,30,22,09,6.40
2015,08,30,22,10,4.80
2015,08,30,22,11,4.80
2015,08,30,22,12,4.80
2015,08,30,22,13,6.40
2015,08,30,22,14,4.80
2015,08,30,22,15,4.80
2015,08,30,22,16,4.80
2015,08,30,22,17,6.40
2015,08,30,22,18,3.20
2015,08,30,22,19,6.40
2015,08,30,22,20,4.80
2015,08,30,22,21,8.10
2015,08,30,22,22,6.40
2015,08,30,22,23,6.40
2015,08,30,22,24,4.80
2015,08,30,22,25,4.80
2015,08,30,22,26,6.40
2015,08,30,22,27,8.10
2015,08,30,22,28,9.60
2015,08,30,22,29,4.80
2015,08,30,22,30,8.10
2015,08,30,22,31,4.80
2015,08,30,22,32,4.80
2015,08,30,22,33,6.40
2015,08,30,22,34,4.80
2015,08,30,22,35,3.20
2015,08,30,22,36,6.40
2015,08,30,22,37,3.20
2015,08,30,22,38,6.40
2015,08,30,22,39,1.60
2015,08,30,22,40,4.80
2015,08,30,22,41,1.60
2015,08,30,22,42,1.60
2015,08,30,22,43,4.80
2015,08,30,22,44,3.20
2015,08,30,22,45,8.10
2015,08,30,22,46,4.80
2015,08,30,22,47,1.60
2015,08,30,22,48,4.80
2015,08,30,22,49,6.40
2015,08,30,22,50,1.60
2015,08,30,22,52,1.60
2015,08,30,22,53,4.80
2015,08,30,22,54,6.40
2015,08,30,22,55,4.80
2015,08,30,22,56,3.20
2015,08,30,22,57,6.40
2015,08,30,22,58,6.40
2015,08,30,22,59,1.60
2015,08,30,23,00,4.80
2015,08,30,23,01,3.20
2015,08,30,23,02,6.40
2015,08,30,23,03,6.40
2015,08,30,23,04,4.80
2015,08,30,23,05,4.80
2015,08,30,23,06,1.60
2015,08,30,23,07,9.60
2015,08,30,23,08,8.10
2015,08,30,23,09,9.60
2015,08,30,23,10,8.10
2015,08,30,23,11,9.60
2015,08,30,23,12,11.30
2015,08,30,23,13,6.40
2015,08,30,23,14,6.40
2015,08,30,23,15,6.40
2015,08,30,23,16,4.80
2015,08,30,23,17,6.40
2015,08,30,23,18,4.80
2015,08,30,23,19,6.40
2015,08,30,23,20,3.20
2015,08,30,23,21,6.40
2015,08,30,23,22,6.40
2015,08,30,23,23,3.20
2015,08,30,23,24,1.60
2015,08,30,23,25,1.60
2015,08,30,23,26,4.80
2015,08,30,23,27,1.60
2015,08,30,23,28,4.80
2015,08,30,23,29,4.80
2015,08,30,23,30,4.80
2015,08,30,23,31,6.40
2015,08,30,23,32,4.80
2015,08,30,23,33,1.60
2015,08,30,23,35,3.20
2015,08,30,23,39,1.60
2015,08,30,23,42,1.60
2015,08,30,23,44,1.60
2015,08,30,23,45,3.20
2015,08,30,23,46,9.60
2015,08,30,23,47,4.80
2015,08,30,23,48,3.20
2015,08,30,23,49,1.60
